contact:dominique.lefevre@mio.osupytheas.fr, maurice.libes@osupytheas.fr, didier.mallarino@osupytheas.fr
Project:EMSO http://www.emso-fr.org/EMSO-France
Depth: 2436.0 m
Title:EMSO Ligure Ouest : Data MII capteur CSTAR
DateTime,Latitude,Longitude,Instrument_Serial,Reference_Counts,Signal_Counts,Corrected_Signal_raw_counts,Calculated_Beam_c_inverse_meters,Internal_thermistor_counts
DateTime,Latitude,Longitude,Instrument_Serial,Reference_Counts,Signal_Counts,Corrected_Signal_raw_counts,Calculated_Beam_c_inverse_meters,Internal_thermistor_counts
2019-06-18T00:00:13,42.805,6.029,CST-1368DR,9009,12612,15532,0.022,551
2019-06-18T00:03:14,42.805,6.029,CST-1368DR,9009,12611,15531,0.022,551
2019-06-18T00:06:16,42.805,6.029,CST-1368DR,9009,12609,15528,0.023,551
2019-06-18T00:09:17,42.805,6.029,CST-1368DR,9009,12610,15530,0.022,551
2019-06-18T00:12:18,42.805,6.029,CST-1368DR,9009,12610,15530,0.022,551
2019-06-18T00:15:20,42.805,6.029,CST-1368DR,9009,12612,15532,0.022,551
2019-06-18T00:18:21,42.805,6.029,CST-1368DR,9009,12610,15529,0.022,551
2019-06-18T00:21:23,42.805,6.029,CST-1368DR,9009,12611,15531,0.022,551
2019-06-18T00:24:24,42.805,6.029,CST-1368DR,9009,12611,15531,0.022,551
2019-06-18T00:27:25,42.805,6.029,CST-1368DR,9009,12611,15531,0.022,551
2019-06-18T00:30:27,42.805,6.029,CST-1368DR,9009,12610,15530,0.022,550
2019-06-18T00:33:28,42.805,6.029,CST-1368DR,9009,12611,15531,0.022,550
2019-06-18T00:36:30,42.805,6.029,CST-1368DR,9009,12609,15528,0.023,551
2019-06-18T00:39:31,42.805,6.029,CST-1368DR,9009,12610,15530,0.022,551
2019-06-18T00:42:33,42.805,6.029,CST-1368DR,9009,12610,15530,0.022,551
2019-06-18T00:45:34,42.805,6.029,CST-1368DR,9009,12610,15529,0.022,551
2019-06-18T00:48:35,42.805,6.029,CST-1368DR,9009,12602,15520,0.025,551
2019-06-18T00:51:37,42.805,6.029,CST-1368DR,9009,12610,15529,0.022,551
2019-06-18T00:54:38,42.805,6.029,CST-1368DR,9009,12610,15530,0.022,550
2019-06-18T00:57:40,42.805,6.029,CST-1368DR,9009,12609,15529,0.022,551
2019-06-18T01:00:41,42.805,6.029,CST-1368DR,9009,12610,15529,0.022,551
2019-06-18T01:03:42,42.805,6.029,CST-1368DR,9009,12610,15530,0.022,551
2019-06-18T01:06:44,42.805,6.029,CST-1368DR,9009,12609,15528,0.023,551
2019-06-18T01:09:45,42.805,6.029,CST-1368DR,9009,12608,15527,0.023,551
2019-06-18T01:12:47,42.805,6.029,CST-1368DR,9009,12609,15529,0.022,551
2019-06-18T01:15:48,42.805,6.029,CST-1368DR,9009,12606,15525,0.023,551
2019-06-18T01:18:49,42.805,6.029,CST-1368DR,9009,12611,15531,0.022,551
2019-06-18T01:21:51,42.805,6.029,CST-1368DR,9009,12609,15529,0.022,551
2019-06-18T01:24:52,42.805,6.029,CST-1368DR,9009,12610,15529,0.022,551
2019-06-18T01:27:54,42.805,6.029,CST-1368DR,9008,12610,15531,0.022,551
2019-06-18T01:30:55,42.805,6.029,CST-1368DR,9009,12610,15530,0.022,551
2019-06-18T01:33:56,42.805,6.029,CST-1368DR,9008,12608,15529,0.022,551
2019-06-18T01:36:58,42.805,6.029,CST-1368DR,9009,12610,15529,0.022,551
2019-06-18T01:39:59,42.805,6.029,CST-1368DR,9008,12610,15531,0.022,551
2019-06-18T01:43:01,42.805,6.029,CST-1368DR,9008,12609,15530,0.022,551
2019-06-18T01:46:02,42.805,6.029,CST-1368DR,9008,12610,15531,0.022,551
2019-06-18T01:49:04,42.805,6.029,CST-1368DR,9008,12609,15531,0.022,551
2019-06-18T01:52:05,42.805,6.029,CST-1368DR,9008,12607,15528,0.023,551
2019-06-18T01:55:06,42.805,6.029,CST-1368DR,9008,12610,15531,0.022,551
2019-06-18T01:58:08,42.805,6.029,CST-1368DR,9008,12609,15531,0.022,550
2019-06-18T02:01:09,42.805,6.029,CST-1368DR,9008,12610,15531,0.022,551
2019-06-18T02:04:11,42.805,6.029,CST-1368DR,9008,12609,15530,0.022,551
2019-06-18T02:07:12,42.805,6.029,CST-1368DR,9008,12607,15528,0.023,551
2019-06-18T02:10:13,42.805,6.029,CST-1368DR,9008,12590,15507,0.028,551
2019-06-18T02:13:15,42.805,6.029,CST-1368DR,9008,12608,15529,0.022,551
2019-06-18T02:16:16,42.805,6.029,CST-1368DR,9008,12609,15530,0.022,551
2019-06-18T02:19:18,42.805,6.029,CST-1368DR,9008,12610,15531,0.022,551
2019-06-18T02:22:19,42.805,6.029,CST-1368DR,9008,12608,15529,0.022,551
2019-06-18T02:25:20,42.805,6.029,CST-1368DR,9008,12609,15530,0.022,551
2019-06-18T02:28:22,42.805,6.029,CST-1368DR,9008,12608,15529,0.022,551
2019-06-18T02:31:23,42.805,6.029,CST-1368DR,9008,12609,15530,0.022,551
2019-06-18T02:34:25,42.805,6.029,CST-1368DR,9008,12605,15525,0.023,551
2019-06-18T02:37:26,42.805,6.029,CST-1368DR,9008,12608,15528,0.023,551
2019-06-18T02:40:27,42.805,6.029,CST-1368DR,9008,12609,15530,0.022,551
2019-06-18T02:43:29,42.805,6.029,CST-1368DR,9008,12609,15530,0.022,551
2019-06-18T02:46:30,42.805,6.029,CST-1368DR,9008,12608,15529,0.022,551
2019-06-18T02:49:32,42.805,6.029,CST-1368DR,9008,12609,15530,0.022,551
2019-06-18T02:52:33,42.805,6.029,CST-1368DR,9008,12609,15530,0.022,551
2019-06-18T02:55:35,42.805,6.029,CST-1368DR,9008,12609,15530,0.022,551
2019-06-18T02:58:36,42.805,6.029,CST-1368DR,9008,12607,15527,0.023,551
2019-06-18T03:01:37,42.805,6.029,CST-1368DR,9008,12608,15529,0.022,551
2019-06-18T03:04:39,42.805,6.029,CST-1368DR,9008,12608,15529,0.022,551
2019-06-18T03:07:40,42.805,6.029,CST-1368DR,9008,12608,15528,0.023,551
2019-06-18T03:10:42,42.805,6.029,CST-1368DR,9008,12608,15529,0.022,551
2019-06-18T03:13:43,42.805,6.029,CST-1368DR,9007,12608,15531,0.022,551
2019-06-18T03:16:44,42.805,6.029,CST-1368DR,9008,12606,15527,0.023,551
2019-06-18T03:19:46,42.805,6.029,CST-1368DR,9008,12608,15529,0.022,551
2019-06-18T03:22:47,42.805,6.029,CST-1368DR,9008,12608,15529,0.022,551
2019-06-18T03:25:49,42.805,6.029,CST-1368DR,9007,12609,15532,0.022,551
2019-06-18T03:28:50,42.805,6.029,CST-1368DR,9008,12606,15527,0.023,550
2019-06-18T03:31:51,42.805,6.029,CST-1368DR,9007,12607,15530,0.022,551
2019-06-18T03:34:53,42.805,6.029,CST-1368DR,9007,12606,15528,0.023,551
2019-06-18T03:37:54,42.805,6.029,CST-1368DR,9007,12608,15530,0.022,551
2019-06-18T03:40:56,42.805,6.029,CST-1368DR,9007,12607,15530,0.022,551
2019-06-18T03:43:57,42.805,6.029,CST-1368DR,9007,12606,15528,0.023,551
2019-06-18T03:46:59,42.805,6.029,CST-1368DR,9007,12604,15525,0.023,551
2019-06-18T03:50:00,42.805,6.029,CST-1368DR,9007,12608,15530,0.022,551
2019-06-18T03:53:01,42.805,6.029,CST-1368DR,9007,12607,15530,0.022,551
2019-06-18T03:56:03,42.805,6.029,CST-1368DR,9007,12608,15530,0.022,551
2019-06-18T03:59:04,42.805,6.029,CST-1368DR,9007,12607,15530,0.022,551
2019-06-18T04:02:06,42.805,6.029,CST-1368DR,9007,12608,15531,0.022,551
2019-06-18T04:05:07,42.805,6.029,CST-1368DR,9007,12607,15529,0.022,551
2019-06-18T04:08:08,42.805,6.029,CST-1368DR,9007,12607,15529,0.022,550
2019-06-18T04:11:10,42.805,6.029,CST-1368DR,9007,12606,15528,0.023,551
2019-06-18T04:14:11,42.805,6.029,CST-1368DR,9007,12607,15529,0.022,551
2019-06-18T04:17:13,42.805,6.029,CST-1368DR,9007,12607,15530,0.022,551
2019-06-18T04:20:14,42.805,6.029,CST-1368DR,9007,12607,15529,0.022,551
2019-06-18T04:23:15,42.805,6.029,CST-1368DR,9007,12606,15528,0.023,551
2019-06-18T04:26:17,42.805,6.029,CST-1368DR,9007,12606,15528,0.023,551
2019-06-18T04:29:18,42.805,6.029,CST-1368DR,9007,12606,15528,0.023,551
2019-06-18T04:32:20,42.805,6.029,CST-1368DR,9007,12604,15526,0.023,550
2019-06-18T04:35:21,42.805,6.029,CST-1368DR,9007,12607,15529,0.022,551
2019-06-18T04:38:22,42.805,6.029,CST-1368DR,9007,12607,15529,0.022,551
2019-06-18T04:41:24,42.805,6.029,CST-1368DR,9007,12607,15530,0.022,551
2019-06-18T04:44:25,42.805,6.029,CST-1368DR,9007,12607,15529,0.022,551
2019-06-18T04:47:27,42.805,6.029,CST-1368DR,9007,12605,15527,0.023,551
2019-06-18T04:50:28,42.805,6.029,CST-1368DR,9007,12606,15528,0.023,551
2019-06-18T04:53:30,42.805,6.029,CST-1368DR,9007,12607,15529,0.022,551
2019-06-18T04:56:31,42.805,6.029,CST-1368DR,9007,12605,15526,0.023,551
2019-06-18T04:59:32,42.805,6.029,CST-1368DR,9007,12607,15529,0.022,550
2019-06-18T05:02:34,42.805,6.029,CST-1368DR,9007,12606,15528,0.023,551
2019-06-18T05:05:35,42.805,6.029,CST-1368DR,9007,12606,15528,0.023,551
2019-06-18T05:08:37,42.805,6.029,CST-1368DR,9007,12602,15523,0.024,551
2019-06-18T05:11:38,42.805,6.029,CST-1368DR,9007,12605,15527,0.023,551
2019-06-18T05:14:39,42.805,6.029,CST-1368DR,9006,12604,15528,0.023,551
2019-06-18T05:17:41,42.805,6.029,CST-1368DR,9006,12605,15528,0.023,551
2019-06-18T05:20:42,42.805,6.029,CST-1368DR,9006,12594,15515,0.026,551
2019-06-18T05:23:44,42.805,6.029,CST-1368DR,9006,12606,15530,0.022,551
2019-06-18T05:26:45,42.805,6.029,CST-1368DR,9006,12605,15528,0.023,551
2019-06-18T05:29:46,42.805,6.029,CST-1368DR,9006,12604,15527,0.023,551
2019-06-18T05:32:48,42.805,6.029,CST-1368DR,9006,12605,15528,0.023,550
2019-06-18T05:35:49,42.805,6.029,CST-1368DR,9006,12604,15528,0.023,551
2019-06-18T05:38:51,42.805,6.029,CST-1368DR,9006,12604,15527,0.023,551
2019-06-18T05:41:52,42.805,6.029,CST-1368DR,9006,12605,15529,0.022,551
2019-06-18T05:44:53,42.805,6.029,CST-1368DR,9006,12605,15528,0.023,551
2019-06-18T05:47:55,42.805,6.029,CST-1368DR,9006,12603,15525,0.023,551
2019-06-18T05:50:56,42.805,6.029,CST-1368DR,9006,12604,15527,0.023,551
2019-06-18T05:53:58,42.805,6.029,CST-1368DR,9006,12589,15509,0.028,551
2019-06-18T05:56:59,42.805,6.029,CST-1368DR,9006,12606,15529,0.022,551
2019-06-18T06:00:01,42.805,6.029,CST-1368DR,9006,12604,15527,0.023,551
2019-06-18T06:03:02,42.805,6.029,CST-1368DR,9006,12604,15527,0.023,550
2019-06-18T06:06:03,42.805,6.029,CST-1368DR,9006,12604,15527,0.023,551
2019-06-18T06:09:05,42.805,6.029,CST-1368DR,9006,12604,15527,0.023,551
2019-06-18T06:12:06,42.805,6.029,CST-1368DR,9006,12603,15525,0.023,551
2019-06-18T06:15:08,42.805,6.029,CST-1368DR,9006,12603,15526,0.023,551
2019-06-18T06:18:09,42.805,6.029,CST-1368DR,9006,12604,15527,0.023,551
2019-06-18T06:21:10,42.805,6.029,CST-1368DR,9006,12603,15526,0.023,551
2019-06-18T06:24:12,42.805,6.029,CST-1368DR,9006,12601,15523,0.024,551
2019-06-18T06:27:13,42.805,6.029,CST-1368DR,9006,12603,15526,0.023,551
2019-06-18T06:30:15,42.805,6.029,CST-1368DR,9006,12590,15509,0.028,550
2019-06-18T06:33:16,42.805,6.029,CST-1368DR,9006,12603,15526,0.023,551
2019-06-18T06:36:17,42.805,6.029,CST-1368DR,9006,12604,15528,0.023,551
2019-06-18T06:39:19,42.805,6.029,CST-1368DR,9005,12603,15527,0.023,551
2019-06-18T06:42:20,42.805,6.029,CST-1368DR,9005,12602,15526,0.023,551
2019-06-18T06:45:22,42.805,6.029,CST-1368DR,9005,12603,15527,0.023,551
2019-06-18T06:48:23,42.805,6.029,CST-1368DR,9005,12602,15527,0.023,551
2019-06-18T06:51:24,42.805,6.029,CST-1368DR,9005,12603,15527,0.023,551
2019-06-18T06:54:26,42.805,6.029,CST-1368DR,9005,12603,15528,0.023,550
2019-06-18T06:57:27,42.805,6.029,CST-1368DR,9005,12603,15528,0.023,551
2019-06-18T07:00:29,42.805,6.029,CST-1368DR,9005,12602,15527,0.023,551
2019-06-18T07:03:30,42.805,6.029,CST-1368DR,9005,12603,15527,0.023,551
2019-06-18T07:06:32,42.805,6.029,CST-1368DR,9005,12604,15528,0.023,551
2019-06-18T07:09:33,42.805,6.029,CST-1368DR,9005,12604,15528,0.023,551
2019-06-18T07:12:34,42.805,6.029,CST-1368DR,9005,12602,15526,0.023,551
2019-06-18T07:15:36,42.805,6.029,CST-1368DR,9005,12604,15529,0.022,550
2019-06-18T07:18:37,42.805,6.029,CST-1368DR,9005,12604,15528,0.023,550
2019-06-18T07:21:39,42.805,6.029,CST-1368DR,9005,12603,15528,0.023,551
2019-06-18T07:24:40,42.805,6.029,CST-1368DR,9005,12602,15527,0.023,551
2019-06-18T07:27:41,42.805,6.029,CST-1368DR,9005,12604,15529,0.022,550
2019-06-18T07:30:43,42.805,6.029,CST-1368DR,9005,12601,15525,0.023,551
2019-06-18T07:33:44,42.805,6.029,CST-1368DR,9005,12603,15528,0.023,551
2019-06-18T07:36:46,42.805,6.029,CST-1368DR,9005,12604,15528,0.023,550
2019-06-18T07:39:47,42.805,6.029,CST-1368DR,9005,12604,15528,0.023,551
2019-06-18T07:42:48,42.805,6.029,CST-1368DR,9005,12603,15528,0.023,551
2019-06-18T07:45:50,42.805,6.029,CST-1368DR,9005,12603,15528,0.023,551
2019-06-18T07:48:51,42.805,6.029,CST-1368DR,9005,12602,15526,0.023,551
2019-06-18T07:51:53,42.805,6.029,CST-1368DR,9005,12603,15528,0.023,551
2019-06-18T07:54:54,42.805,6.029,CST-1368DR,9005,12604,15528,0.023,551
2019-06-18T07:57:55,42.805,6.029,CST-1368DR,9005,12604,15528,0.023,551
2019-06-18T08:00:57,42.805,6.029,CST-1368DR,9005,12604,15528,0.023,551
2019-06-18T08:03:58,42.805,6.029,CST-1368DR,9005,12602,15526,0.023,551
2019-06-18T08:07:00,42.805,6.029,CST-1368DR,9005,12604,15529,0.022,551
2019-06-18T08:10:01,42.805,6.029,CST-1368DR,9005,12601,15525,0.023,551
2019-06-18T08:13:03,42.805,6.029,CST-1368DR,9005,12601,15525,0.023,551
2019-06-18T08:16:04,42.805,6.029,CST-1368DR,9005,12604,15529,0.022,551
2019-06-18T08:19:05,42.805,6.029,CST-1368DR,9005,12603,15527,0.023,551
2019-06-18T08:22:07,42.805,6.029,CST-1368DR,9005,12602,15526,0.023,550
2019-06-18T08:25:08,42.805,6.029,CST-1368DR,9005,12603,15527,0.023,551
2019-06-18T08:28:10,42.805,6.029,CST-1368DR,9005,12604,15529,0.022,551
2019-06-18T08:31:11,42.805,6.029,CST-1368DR,9005,12601,15525,0.023,551
2019-06-18T08:34:12,42.805,6.029,CST-1368DR,9004,12601,15526,0.023,551
2019-06-18T08:37:14,42.805,6.029,CST-1368DR,9005,12603,15527,0.023,551
2019-06-18T08:40:15,42.805,6.029,CST-1368DR,9004,12595,15520,0.025,551
2019-06-18T08:43:17,42.805,6.029,CST-1368DR,9005,12602,15527,0.023,551
2019-06-18T08:46:18,42.805,6.029,CST-1368DR,9004,12603,15529,0.022,551
2019-06-18T08:49:19,42.805,6.029,CST-1368DR,9004,12602,15528,0.023,551
2019-06-18T08:52:21,42.805,6.029,CST-1368DR,9004,12603,15530,0.022,551
2019-06-18T08:55:22,42.805,6.029,CST-1368DR,9004,12603,15530,0.022,551
2019-06-18T08:58:24,42.805,6.029,CST-1368DR,9004,12601,15526,0.023,551
2019-06-18T09:01:25,42.805,6.029,CST-1368DR,9004,12600,15525,0.023,551
2019-06-18T09:04:27,42.805,6.029,CST-1368DR,9004,12602,15528,0.023,551
2019-06-18T09:07:28,42.805,6.029,CST-1368DR,9004,12602,15528,0.023,551
2019-06-18T09:10:29,42.805,6.029,CST-1368DR,9004,12601,15526,0.023,551
2019-06-18T09:13:31,42.805,6.029,CST-1368DR,9004,12603,15529,0.022,551
2019-06-18T09:16:32,42.805,6.029,CST-1368DR,9004,12604,15530,0.022,551
2019-06-18T09:19:34,42.805,6.029,CST-1368DR,9004,12603,15530,0.022,551
2019-06-18T09:22:35,42.805,6.029,CST-1368DR,9004,12603,15529,0.022,551
2019-06-18T09:25:36,42.805,6.029,CST-1368DR,9004,12603,15530,0.022,551
2019-06-18T09:28:38,42.805,6.029,CST-1368DR,9004,12603,15529,0.022,551
2019-06-18T09:31:39,42.805,6.029,CST-1368DR,9004,12599,15525,0.023,551
2019-06-18T09:34:41,42.805,6.029,CST-1368DR,9004,12599,15525,0.023,551
2019-06-18T09:37:42,42.805,6.029,CST-1368DR,9004,12603,15530,0.022,551
2019-06-18T09:40:43,42.805,6.029,CST-1368DR,9004,12600,15526,0.023,551
2019-06-18T09:43:45,42.805,6.029,CST-1368DR,9004,12587,15509,0.028,551
2019-06-18T09:46:46,42.805,6.029,CST-1368DR,9004,12602,15528,0.023,551
2019-06-18T09:49:48,42.805,6.029,CST-1368DR,9004,12602,15528,0.023,551
2019-06-18T09:52:49,42.805,6.029,CST-1368DR,9004,12601,15527,0.023,551
2019-06-18T09:55:50,42.805,6.029,CST-1368DR,9004,12601,15526,0.023,551
2019-06-18T09:58:52,42.805,6.029,CST-1368DR,9004,12600,15525,0.023,551
2019-06-18T10:01:53,42.805,6.029,CST-1368DR,9003,12600,15527,0.023,551
2019-06-18T10:04:55,42.805,6.029,CST-1368DR,9004,12602,15528,0.023,551
2019-06-18T10:07:56,42.805,6.029,CST-1368DR,9004,12603,15529,0.022,551
2019-06-18T10:10:58,42.805,6.029,CST-1368DR,9004,12601,15526,0.023,551
2019-06-18T10:13:59,42.805,6.029,CST-1368DR,9004,12603,15530,0.022,551
2019-06-18T10:17:00,42.805,6.029,CST-1368DR,9004,12602,15528,0.023,551
2019-06-18T10:20:02,42.805,6.029,CST-1368DR,9004,12602,15528,0.023,551
2019-06-18T10:23:03,42.805,6.029,CST-1368DR,9004,12601,15526,0.023,551
2019-06-18T10:26:05,42.805,6.029,CST-1368DR,9004,12602,15528,0.023,551
2019-06-18T10:29:06,42.805,6.029,CST-1368DR,9004,12598,15523,0.024,551
2019-06-18T10:32:07,42.805,6.029,CST-1368DR,9003,12600,15527,0.023,550
2019-06-18T10:35:09,42.805,6.029,CST-1368DR,9003,12599,15525,0.023,551
2019-06-18T10:38:10,42.805,6.029,CST-1368DR,9003,12603,15530,0.022,551
2019-06-18T10:41:12,42.805,6.029,CST-1368DR,9003,12600,15527,0.023,551
2019-06-18T10:44:13,42.805,6.029,CST-1368DR,9003,12598,15525,0.023,551
2019-06-18T10:47:14,42.805,6.029,CST-1368DR,9003,12602,15530,0.022,551
2019-06-18T10:50:16,42.805,6.029,CST-1368DR,9003,12602,15530,0.022,551
2019-06-18T10:53:17,42.805,6.029,CST-1368DR,9003,12601,15528,0.023,551
2019-06-18T10:56:19,42.805,6.029,CST-1368DR,9003,12600,15527,0.023,551
2019-06-18T10:59:20,42.805,6.029,CST-1368DR,9003,12599,15526,0.023,551
2019-06-18T11:02:21,42.805,6.029,CST-1368DR,9003,12601,15528,0.023,551
2019-06-18T11:05:23,42.805,6.029,CST-1368DR,9003,12600,15526,0.023,551
2019-06-18T11:08:24,42.805,6.029,CST-1368DR,9003,12600,15527,0.023,551
2019-06-18T11:11:26,42.805,6.029,CST-1368DR,9003,12602,15529,0.022,551
2019-06-18T11:14:27,42.805,6.029,CST-1368DR,9003,12594,15519,0.025,551
2019-06-18T11:17:29,42.805,6.029,CST-1368DR,9003,12600,15527,0.023,551
2019-06-18T11:20:30,42.805,6.029,CST-1368DR,9003,12601,15528,0.023,551
2019-06-18T11:23:31,42.805,6.029,CST-1368DR,9003,12600,15526,0.023,551
2019-06-18T11:26:33,42.805,6.029,CST-1368DR,9003,12594,15520,0.025,551
2019-06-18T11:29:34,42.805,6.029,CST-1368DR,9003,12599,15526,0.023,551
2019-06-18T11:32:36,42.805,6.029,CST-1368DR,9003,12599,15526,0.023,551
2019-06-18T11:35:37,42.805,6.029,CST-1368DR,9003,12599,15526,0.023,550
2019-06-18T11:38:38,42.805,6.029,CST-1368DR,9003,12601,15529,0.022,551
2019-06-18T11:41:40,42.805,6.029,CST-1368DR,9003,12601,15528,0.023,551
2019-06-18T11:44:41,42.805,6.029,CST-1368DR,9003,12600,15527,0.023,551
2019-06-18T11:47:43,42.805,6.029,CST-1368DR,9003,12601,15528,0.023,550
2019-06-18T11:50:44,42.805,6.029,CST-1368DR,9003,12601,15528,0.023,551
2019-06-18T11:53:45,42.805,6.029,CST-1368DR,9002,12595,15523,0.024,551
2019-06-18T11:56:47,42.805,6.029,CST-1368DR,9002,12599,15527,0.023,551
2019-06-18T11:59:48,42.805,6.029,CST-1368DR,9002,12599,15527,0.023,551
2019-06-18T12:02:50,42.805,6.029,CST-1368DR,9002,12600,15529,0.022,551
2019-06-18T12:05:51,42.805,6.029,CST-1368DR,9002,12601,15529,0.022,551
2019-06-18T12:08:52,42.805,6.029,CST-1368DR,9002,12601,15530,0.022,550
2019-06-18T12:11:54,42.805,6.029,CST-1368DR,9002,12602,15531,0.022,551
2019-06-18T12:14:55,42.805,6.029,CST-1368DR,9002,12600,15529,0.022,551
2019-06-18T12:17:57,42.805,6.029,CST-1368DR,9002,12598,15526,0.023,551
2019-06-18T12:20:58,42.805,6.029,CST-1368DR,9002,12597,15525,0.023,551
2019-06-18T12:24:00,42.805,6.029,CST-1368DR,9002,12600,15529,0.022,551
2019-06-18T12:27:01,42.805,6.029,CST-1368DR,9002,12601,15530,0.022,550
2019-06-18T12:30:02,42.805,6.029,CST-1368DR,9002,12601,15530,0.022,551
2019-06-18T12:33:04,42.805,6.029,CST-1368DR,9002,12600,15528,0.023,551
2019-06-18T12:36:05,42.805,6.029,CST-1368DR,9002,12599,15527,0.023,550
2019-06-18T12:39:07,42.805,6.029,CST-1368DR,9002,12595,15523,0.024,551
2019-06-18T12:42:08,42.805,6.029,CST-1368DR,9002,12599,15528,0.023,550
2019-06-18T12:45:09,42.805,6.029,CST-1368DR,9002,12600,15529,0.022,551
2019-06-18T12:48:11,42.805,6.029,CST-1368DR,9002,12600,15528,0.023,550
2019-06-18T12:51:12,42.805,6.029,CST-1368DR,9002,12601,15529,0.022,551
2019-06-18T12:54:14,42.805,6.029,CST-1368DR,9002,12596,15524,0.024,551
2019-06-18T12:57:15,42.805,6.029,CST-1368DR,9002,12597,15525,0.023,551
2019-06-18T13:00:16,42.805,6.029,CST-1368DR,9002,12601,15529,0.022,551
2019-06-18T13:03:18,42.805,6.029,CST-1368DR,9002,12600,15528,0.023,551
2019-06-18T13:06:19,42.805,6.029,CST-1368DR,9002,12599,15527,0.023,550
2019-06-18T13:09:21,42.805,6.029,CST-1368DR,9002,12599,15527,0.023,551
2019-06-18T13:12:22,42.805,6.029,CST-1368DR,9002,12600,15528,0.023,551
2019-06-18T13:15:23,42.805,6.029,CST-1368DR,9002,12599,15527,0.023,551
2019-06-18T13:18:25,42.805,6.029,CST-1368DR,9002,12601,15530,0.022,551
2019-06-18T13:21:26,42.805,6.029,CST-1368DR,9002,12598,15526,0.023,551
2019-06-18T13:24:28,42.805,6.029,CST-1368DR,9002,12596,15523,0.024,551
2019-06-18T13:27:29,42.805,6.029,CST-1368DR,9002,12601,15529,0.022,551
2019-06-18T13:30:31,42.805,6.029,CST-1368DR,9002,12600,15528,0.023,551
2019-06-18T13:33:32,42.805,6.029,CST-1368DR,9002,12600,15529,0.022,551
2019-06-18T13:36:33,42.805,6.029,CST-1368DR,9002,12601,15530,0.022,551
2019-06-18T13:39:35,42.805,6.029,CST-1368DR,9002,12599,15528,0.023,551
2019-06-18T13:42:36,42.805,6.029,CST-1368DR,9002,12600,15529,0.022,551
2019-06-18T13:45:38,42.805,6.029,CST-1368DR,9001,12599,15529,0.022,550
2019-06-18T13:48:39,42.805,6.029,CST-1368DR,9001,12601,15531,0.022,551
2019-06-18T13:51:40,42.805,6.029,CST-1368DR,9001,12600,15531,0.022,551
2019-06-18T13:54:42,42.805,6.029,CST-1368DR,9001,12600,15531,0.022,551
2019-06-18T13:57:43,42.805,6.029,CST-1368DR,9001,12598,15527,0.023,550
2019-06-18T14:00:45,42.805,6.029,CST-1368DR,9001,12600,15530,0.022,551
2019-06-18T14:03:46,42.805,6.029,CST-1368DR,9001,12598,15528,0.023,551
2019-06-18T14:06:47,42.805,6.029,CST-1368DR,9001,12599,15528,0.023,551
2019-06-18T14:09:49,42.805,6.029,CST-1368DR,9001,12600,15530,0.022,551
2019-06-18T14:12:50,42.805,6.029,CST-1368DR,9001,12600,15530,0.022,551
2019-06-18T14:15:52,42.805,6.029,CST-1368DR,9001,12598,15527,0.023,551
2019-06-18T14:18:53,42.805,6.029,CST-1368DR,9001,12599,15529,0.022,551
2019-06-18T14:21:55,42.805,6.029,CST-1368DR,9001,12599,15528,0.023,551
2019-06-18T14:24:56,42.805,6.029,CST-1368DR,9001,12598,15528,0.023,551
2019-06-18T14:27:57,42.805,6.029,CST-1368DR,9001,12600,15530,0.022,551
2019-06-18T14:30:59,42.805,6.029,CST-1368DR,9001,12599,15529,0.022,551
2019-06-18T14:34:00,42.805,6.029,CST-1368DR,9001,12598,15528,0.023,551
2019-06-18T14:37:02,42.805,6.029,CST-1368DR,9001,12600,15530,0.022,550
2019-06-18T14:40:03,42.805,6.029,CST-1368DR,9001,12600,15530,0.022,551
2019-06-18T14:43:04,42.805,6.029,CST-1368DR,9001,12600,15530,0.022,551
2019-06-18T14:46:06,42.805,6.029,CST-1368DR,9001,12598,15528,0.023,551
2019-06-18T14:49:07,42.805,6.029,CST-1368DR,9001,12600,15530,0.022,551
2019-06-18T14:52:09,42.805,6.029,CST-1368DR,9001,12600,15530,0.022,551
2019-06-18T14:55:10,42.805,6.029,CST-1368DR,9001,12598,15528,0.023,551
2019-06-18T14:58:11,42.805,6.029,CST-1368DR,9001,12598,15527,0.023,551
2019-06-18T15:01:13,42.805,6.029,CST-1368DR,9001,12599,15529,0.022,551
2019-06-18T15:04:14,42.805,6.029,CST-1368DR,9001,12598,15528,0.023,551
2019-06-18T15:07:16,42.805,6.029,CST-1368DR,9001,12598,15527,0.023,550
2019-06-18T15:10:17,42.805,6.029,CST-1368DR,9001,12595,15524,0.024,551
2019-06-18T15:13:18,42.805,6.029,CST-1368DR,9001,12598,15527,0.023,551
2019-06-18T15:16:20,42.805,6.029,CST-1368DR,9000,12598,15529,0.022,551
2019-06-18T15:19:21,42.805,6.029,CST-1368DR,9000,12598,15529,0.022,551
2019-06-18T15:22:23,42.805,6.029,CST-1368DR,9000,12597,15528,0.023,551
2019-06-18T15:25:24,42.805,6.029,CST-1368DR,9001,12597,15526,0.023,551
2019-06-18T15:28:26,42.805,6.029,CST-1368DR,9000,12597,15528,0.023,551
2019-06-18T15:31:27,42.805,6.029,CST-1368DR,9000,12596,15527,0.023,551
2019-06-18T15:34:28,42.805,6.029,CST-1368DR,9000,12595,15526,0.023,551
2019-06-18T15:37:30,42.805,6.029,CST-1368DR,9000,12595,15526,0.023,551
2019-06-18T15:40:31,42.805,6.029,CST-1368DR,9000,12596,15526,0.023,551
2019-06-18T15:43:33,42.805,6.029,CST-1368DR,9000,12590,15519,0.025,551
2019-06-18T15:46:34,42.805,6.029,CST-1368DR,9000,12594,15525,0.023,551
2019-06-18T15:49:35,42.805,6.029,CST-1368DR,9000,12595,15525,0.023,551
2019-06-18T15:52:37,42.805,6.029,CST-1368DR,9000,12594,15524,0.024,551
2019-06-18T15:55:38,42.805,6.029,CST-1368DR,9000,12594,15524,0.024,551
2019-06-18T15:58:40,42.805,6.029,CST-1368DR,9000,12593,15523,0.024,551
2019-06-18T16:01:41,42.805,6.029,CST-1368DR,9000,12591,15521,0.024,551
2019-06-18T16:04:42,42.805,6.029,CST-1368DR,9000,12594,15524,0.024,551
2019-06-18T16:07:44,42.805,6.029,CST-1368DR,9000,12593,15524,0.024,551
2019-06-18T16:10:45,42.805,6.029,CST-1368DR,9000,12592,15522,0.024,551
2019-06-18T16:13:47,42.805,6.029,CST-1368DR,9000,12595,15525,0.023,551
2019-06-18T16:16:48,42.805,6.029,CST-1368DR,9000,12594,15524,0.024,551
2019-06-18T16:19:49,42.805,6.029,CST-1368DR,9000,12594,15524,0.024,551
2019-06-18T16:22:51,42.805,6.029,CST-1368DR,9000,12593,15523,0.024,551
2019-06-18T16:25:52,42.805,6.029,CST-1368DR,9000,12591,15521,0.024,551
2019-06-18T16:28:54,42.805,6.029,CST-1368DR,9000,12590,15520,0.025,551
2019-06-18T16:31:55,42.805,6.029,CST-1368DR,9000,12592,15522,0.024,551
2019-06-18T16:34:57,42.805,6.029,CST-1368DR,9000,12593,15523,0.024,551